Terminal Aerodrome Forecast
Issued by NWS

Home | Current Version | Previous Version | Text Only | Print | Product List | Glossary On
Versions: 1 2 3 4 5 6 7 8 9 10 11 12 13 14 15 16
000
FTUS43 KDTX 182000 AAA
TAFDET
TAF AMD
KDET 182043Z 1821/1918 36006KT P6SM SCT040 SCT060
     FM182300 04004KT P6SM SCT060
     FM191000 VRB03KT 4SM BR SCT030
     FM191300 11007KT P6SM SCT040=

USA.gov is the U.S. government's official web portal to all federal, state and local government web resources and services.